sat.trackr.live / text

‹ back to catalog

STARLINK-5778

NORAD 57149 · 2023-090BA

PAYLOAD ACTIVE UNKNOWN

§ Identity

Operator
Country
US
Launch date
2023-06-23
Launch site
AFETR
Launch vehicle
Mass (kg)
RCS (m²)

Purposes: comms

External: N2YO · Heavens-Above · Gunter

§ Orbital elements

Epoch: 2026-09-20T21:40:39.618912Z

Period
94.27 min
Inclination
43.0029°
Eccentricity
0.0001669
Mean motion
15.27575178 rev/d
Perigee alt
481.9 km
Apogee alt
484.2 km
Semi-major
6,861.2 km
B*
6.0149e-6
RAAN
226.3331°
Arg perigee
258.8468°
Mean anomaly
101.2196°
Rev number
18,056

§ Raw data

STARLINK-57781 57149U 23090BA  26263.90323633 -.00000097  00000+0  60149-5 0  99992 57149  43.0029 226.3331 0001669 258.8468 101.2196 15.27575178180567

JSON: /api/v1/satellites/57149 · /tle

For live sub-satellite position, see the globe view (requires WebGL).

§ Visibility from observer

Set your observer location to see the next 7 days of passes ≥ 10°. The values pass through the URL so the page stays shareable.

No JS? Fill the form by hand. The geolocation button needs JavaScript.